Starlink 34710

operational
NORAD ID: 65365 Int'l Des: 2025-190 Owner: SPXS Country: US Constellation: starlink
LEOCIRCULAR

关于 Starlink 34710

正在加载描述...

实时位置

正在加载3D地球...

即将过境

高度历史

Altitude vs Time

uPlot chart will show altitude changes over time

两行轨道根数

1 65365U 25190Q 25341.15902356 .00044065 00000-0 14912-2 0 9996
2 65365 53.1564 238.3119 0000531 133.4517 226.6528 15.30198860 15111
Epoch: Dec 7, 2025 • Age: 21 hours

当前状态

高度 480.6 km
速度 7.63 km/s
星下点 49.77°N, 148.6°W
发射日期 Aug 28, 2025
运行时间 0.2 years
类型 internet

技术详情

分类 Payload
质量 575.00 kg
干质量 530.00 kg
总质量 575.00 kg
长度 0.30 m
直径 4.10 m
跨度 29.00 m
形状 Box + pan
制造商 SPXS
平台类型 Starlink V2MO
阶段状态 In Orbit
所有者/国家 SPXS/US

大型星座

Loading constellations...